Location: Aulnoy
(48.8410°N, 3.0967°E)
Time: 22:44:14
(UTC+00:00)

Okean O Rocket - Pass Details

Date: 09 February 2023
Orbit: 620 x 643 km, 98.1° (Epoch: 30 March)

Event Time Altitude Azimuth Distance (km) Brightness Sun altitude
Rises 19:44:48 0° 194° (SSW) 2,918 5.1 -27.8°
Reaches altitude 10° 19:47:14 10° 206° (SSW) 2,019 4.3 -28.2°
Maximum altitude 19:51:02 28° 265° (W) 1,207 3.6 -28.8°
Drops below altitude 10° 19:54:52 10° 325° (NW) 2,045 4.7 -29.4°
Sets 19:57:22 0° 337° (NNW) 2,963 5.5 -29.8°
